Wind_Speed
2 1 9 15 8 13 14 13 18 23 16 13 19 24 25 22 17 19 21 23 19 20 24 20 17 20 26 33 31 27 21 27 33 36 39 39 39 36 33 29 25 23 22 18
4 10 13 7 7 9 11 15 23 18 13 9 17 25 22 23 20 22 23 23 25 26 28 23 21 21 26 31 37 29 22 18 33 37 38 38 36 34 31 28 25 22 21 18
5 13 14 5 8 12 12 10 18 21 21 15 21 28 18 16 24 28 28 32 29 27 31 26 22 25 25 29 37 40 28 29 34 36 35 34 33 32 31 29 27 23 20 19
7 4 2 10 6 5 7 5 11 15 11 10 4 15 17 15 17 14 19 25 32 31 33 30 26 28 28 28 40 49 45 40 37 39 37 34 33 35 34 29 27 25 23 22
8 6 5 6 4 2 11 15 14 17 14 12 16 7 8 8 13 19 17 21 27 29 33 33 27 30 31 33 38 54 57 46 40 39 40 36 34 33 31 31 29 26 25 23
14 10 3 5 5 8 12 7 19 9 2 3 7 6 7 6 8 13 6 19 27 28 34 36 27 32 36 38 47 46 48 45 45 42 45 39 35 32 32 33 28 26 27 25
9 4 4 2 8 5 5 11 5 5 1 4 7 3 8 10 13 9 10 17 25 26 30 34 29 29 36 46 46 43 46 47 46 43 43 44 35 30 27 32 30 28 28 26
5 9 4 2 2 7 8 2 2 6 6 11 5 5 5 10 13 17 15 12 17 23 29 28 27 34 42 48 45 48 45 46 39 42 46 40 31 37 26 30 27 29 27 24
4 6 6 11 9 3 3 5 4 5 5 4 3 5 5 16 16 17 12 11 8 5 17 26 28 37 45 48 50 50 52 44 42 47 42 42 29 36 28 31 29 30 22 27
4 8 5 8 4 1 2 8 3 3 5 4 4 2 4 21 25 21 17 12 16 5 12 23 28 37 43 41 46 48 46 41 45 43 44 47 33 29 28 37 30 27 32 26
1 4 9 9 3 5 4 7 4 3 4 3 4 1 4 15 19 18 17 18 16 10 10 24 30 36 37 40 47 48 49 47 45 37 37 39 37 34 38 35 33 35 30 24
4 3 6 15 15 6 6 7 6 3 7 2 3 3 6 17 15 14 15 19 21 13 9 24 27 34 33 41 45 47 43 41 30 28 28 29 35 40 40 37 40 34 30 24
2 2 7 8 5 6 4 14 16 12 6 3 3 6 13 14 15 22 20 24 13 10 11 18 24 27 29 28 35 40 41 36 31 28 32 23 23 37 46 42 40 34 26 24
2 2 5 5 14 15 13 14 18 8 6 10 2 13 17 20 21 21 29 27 18 8 20 20 23 22 23 26 28 27 25 26 31 28 26 27 33 48 49 43 38 34 30 26
3 5 4 9 14 14 14 12 17 13 16 6 18 14 20 19 16 19 27 29 20 10 13 23 26 27 28 30 27 27 25 25 24 26 34 41 40 38 48 43 37 35 29 26
3 4 4 10 8 11 14 10 12 7 14 13 17 11 18 23 24 27 26 29 22 17 12 11 24 30 32 33 34 34 33 31 30 33 35 36 38 43 47 46 37 31 29 24
3 3 5 5 7 11 1 11 9 10 10 11 11 14 17 18 14 16 23 28 23 17 16 16 18 27 33 36 38 36 35 34 36 35 33 36 39 41 25 31 30 32 27 22
3 3 2 4 7 2 2 3 7 10 6 11 13 17 17 17 15 22 32 28 26 19 18 17 17 22 28 31 31 33 32 34 34 35 36 37 42 38 34 29 27 26 24 22
6 1 3 2 4 6 3 10 7 7 4 10 15 17 18 29 6 14 31 25 21 13 15 18 23 26 30 32 33 34 38 37 38 41 45 40 37 39 36 32 29 26 24 21
0 5 2 2 3 3 3 10 13 1 3 14 17 16 13 19 8 4 26 21 20 15 17 20 21 23 28 34 42 46 49 51 52 47 39 38 34 31 32 31 28 26 22 21
4 3 2 2 3 4 2 10 9 5 6 23 21 20 11 5 4 13 14 12 12 11 5 9 19 21 24 36 36 41 39 45 46 44 42 37 34 34 34 32 28 27 25 23
2 2 2 0 2 3 2 3 3 5 14 17 26 20 12 14 12 10 9 8 8 8 5 4 8 15 22 30 35 37 36 38 41 45 41 41 40 37 34 31 29 26 24 23
3 5 2 6 5 5 14 4 4 7 11 15 19 21 13 15 13 10 8 6 6 5 6 8 7 13 18 26 33 39 39 38 36 39 43 41 39 36 32 30 28 25 23 23
4 3 3 3 4 3 10 12 6 7 10 14 16 13 13 14 13 8 7 7 6 6 7 5 6 9 15 23 29 32 33 36 43 43 40 39 37 35 31 27 24 24 23 24
7 3 4 6 10 16 19 12 8 7 9 11 14 13 12 11 12 8 5 5 6 6 7 4 10 12 19 22 32 33 35 39 40 41 39 38 38 37 34 30 26 25 24 20
10 7 5 6 11 10 12 6 6 7 8 12 13 14 9 9 8 5 4 3 4 3 4 5 10 13 19 25 30 32 37 38 37 38 37 37 37 35 32 30 31 27 25 22
Wind_Direction
328 303 263 271 247 261 282 277 265 276 279 282 272 272 279 287 248 251 255 259 259 261 257 261 243 250 237 220 211 201 202 213 223 221 214 215 216 218 220 217 212 210 208 215
339 260 282 287 278 270 265 273 281 283 281 259 272 267 270 269 263 250 251 252 252 259 257 255 242 238 242 219 214 207 212 229 225 221 217 218 219 220 222 218 209 203 204 213
230 264 315 308 301 291 270 260 275 279 296 275 280 280 261 258 254 258 252 245 240 245 253 247 239 236 229 220 205 211 215 232 221 218 215 218 219 218 217 212 205 196 203 215
269 280 313 312 278 268 288 250 271 282 296 299 195 293 286 276 266 244 228 222 230 236 239 238 238 236 222 216 202 184 215 218 215 211 209 211 212 204 208 202 197 201 208 216
265 299 320 298 240 287 262 292 280 276 274 295 281 263 269 297 273 269 249 227 229 231 235 228 230 226 219 214 202 201 209 216 213 207 206 205 204 204 200 196 200 207 212 213
263 290 236 232 265 264 279 305 294 279 274 228 274 188 283 343 276 292 246 220 222 229 241 234 227 222 210 204 197 197 201 205 204 201 202 203 202 200 203 206 202 203 208 209
319 279 260 214 305 292 24 332 310 342 327 252 230 228 254 288 323 300 275 228 233 228 230 225 218 206 196 195 192 190 194 195 199 195 205 206 200 201 206 204 197 198 198 204
1 325 12 358 220 274 307 320 306 304 302 296 295 238 272 323 333 326 343 319 229 215 206 214 225 213 197 189 189 191 197 201 206 209 204 194 191 194 190 198 202 199 197 207
338 271 297 292 284 192 354 315 255 267 241 268 216 275 292 330 335 343 349 13 36 168 196 200 209 214 200 196 195 202 197 203 205 203 194 192 182 185 180 216 205 203 207 205
267 293 263 312 320 185 220 311 289 230 304 292 286 287 323 339 335 337 339 350 345 284 204 195 203 209 207 201 201 197 198 203 200 199 201 202 209 207 196 203 207 199 197 197
228 211 295 325 324 333 342 316 282 268 250 286 302 330 335 332 326 324 326 321 311 268 196 188 195 204 207 206 202 207 209 206 201 220 216 215 212 213 201 201 196 193 193 188
225 274 289 285 289 249 308 306 305 287 315 286 267 307 299 326 333 333 314 308 296 232 195 191 194 195 206 205 204 208 205 203 197 186 190 201 194 205 202 199 187 187 184 176
203 280 305 332 13 10 355 324 345 316 275 286 327 308 318 336 1 347 349 351 319 231 175 184 193 196 201 197 203 210 204 202 197 199 199 213 209 193 201 189 178 172 176 168
172 266 215 263 287 294 298 330 349 354 342 318 333 323 1 2 1 354 352 1 27 165 154 164 171 179 177 177 179 183 186 193 204 207 207 202 203 185 180 174 169 170 164 161
183 257 234 251 271 286 271 354 346 2 357 356 336 356 357 352 353 354 358 8 30 43 119 150 146 153 156 164 162 171 182 186 196 204 193 178 176 177 170 165 164 160 156 154
208 272 284 304 298 310 310 4 341 9 5 353 343 343 351 340 347 5 2 6 17 36 69 101 142 149 159 167 171 178 186 191 197 194 193 184 174 169 162 155 158 153 152 149
256 266 313 275 301 316 80 6 335 327 26 358 347 328 336 343 340 16 0 9 10 45 62 85 116 144 155 160 165 165 174 181 188 191 188 180 173 152 147 143 150 151 142 142
287 316 261 282 332 8 90 311 317 317 346 3 342 340 342 345 334 17 17 12 13 34 81 99 126 141 146 154 157 158 163 164 170 168 165 152 142 130 138 140 149 148 146 146
196 295 285 330 313 294 357 335 331 328 338 350 343 340 347 345 342 6 10 23 24 46 85 112 128 136 138 143 148 149 147 149 149 144 138 137 139 137 143 158 150 142 141 141
77 213 229 302 292 237 281 312 342 40 279 343 345 339 352 352 12 8 355 7 24 48 100 107 109 125 138 141 138 138 139 137 137 137 137 139 143 152 148 144 144 135 138 138
308 291 199 274 269 293 266 305 339 34 291 316 330 331 352 357 330 329 354 4 21 31 50 103 127 134 142 150 153 145 143 145 148 145 144 152 155 148 141 139 137 137 136 133
232 301 257 176 251 315 292 334 41 246 299 312 330 334 337 345 353 0 11 11 15 27 40 96 156 155 153 161 158 142 152 150 157 154 154 146 145 140 138 139 134 133 133 134
272 196 228 182 224 226 312 267 254 265 281 314 329 343 341 346 350 5 8 19 36 59 92 102 123 164 161 149 150 144 155 161 150 141 141 142 140 138 138 136 132 130 131 129
281 223 232 346 276 257 304 306 269 281 297 325 332 336 341 338 341 3 2 4 47 54 64 71 92 132 144 152 141 144 155 152 145 144 141 140 137 136 133 127 123 125 129 125
222 318 227 259 277 288 291 273 257 275 293 323 335 332 329 335 340 352 14 8 24 63 86 123 139 141 145 152 146 156 151 152 147 143 143 141 137 135 131 124 118 119 114 114
205 217 180 227 243 240 263 264 258 257 282 313 324 334 343 337 337 349 2 40 29 46 103 150 142 160 147 144 145 147 149 150 148 144 142 140 138 137 136 131 123 119 115 117
Height
1477 1480 1481 1473 1473 1470 1469 1467 1461 1445 1445 1446 1439 1428 1418 1413 1417 1413 1411 1412 1413 1413 1410 1409 1411 1414 1415 1419 1421 1424 1429 1442 1451 1461 1469 1476 1481 1488 1494 1496 1500 1504 1509 1511
1481 1478 1468 1468 1466 1466 1466 1464 1452 1441 1439 1443 1433 1416 1412 1403 1403 1404 1403 1404 1404 1408 1405 1404 1404 1407 1408 1413 1418 1419 1425 1430 1447 1458 1465 1471 1478 1483 1490 1496 1498 1503 1507 1509
1481 1467 1466 1467 1465 1465 1461 1460 1450 1446 1434 1432 1425 1397 1401 1389 1389 1391 1391 1390 1394 1398 1399 1398 1398 1399 1402 1405 1408 1410 1416 1430 1444 1453 1461 1468 1473 1480 1487 1492 1496 1500 1504 1508
1474 1464 1465 1466 1464 1460 1462 1446 1444 1438 1437 1429 1423 1403 1398 1384 1378 1380 1378 1379 1381 1386 1389 1391 1393 1393 1394 1400 1407 1414 1423 1432 1440 1448 1455 1461 1467 1470 1478 1488 1494 1497 1501 1505
1474 1466 1466 1466 1459 1455 1452 1441 1438 1431 1431 1432 1418 1423 1390 1378 1373 1366 1366 1369 1371 1376 1379 1382 1386 1387 1390 1393 1400 1412 1422 1430 1436 1443 1450 1456 1462 1467 1476 1484 1488 1494 1499 1502
1469 1463 1463 1459 1452 1449 1442 1440 1428 1426 1430 1428 1420 1419 1395 1390 1377 1365 1357 1360 1361 1368 1372 1375 1380 1383 1386 1392 1399 1407 1415 1424 1432 1436 1447 1452 1456 1463 1472 1480 1486 1491 1496 1500
1472 1462 1456 1454 1453 1444 1445 1445 1434 1441 1428 1420 1412 1415 1395 1382 1369 1361 1354 1354 1353 1356 1363 1368 1374 1379 1385 1389 1396 1402 1414 1421 1427 1430 1440 1447 1452 1462 1470 1477 1482 1486 1490 1497
1490 1476 1457 1453 1456 1455 1450 1449 1450 1440 1422 1409 1404 1406 1387 1374 1368 1360 1354 1348 1348 1352 1356 1361 1366 1374 1380 1385 1393 1401 1407 1415 1417 1424 1435 1446 1450 1456 1466 1476 1479 1482 1484 1491
1493 1475 1454 1452 1449 1450 1446 1447 1443 1441 1427 1420 1404 1396 1384 1372 1365 1359 1356 1357 1348 1347 1351 1354 1359 1367 1375 1380 1388 1396 1402 1407 1413 1423 1433 1444 1450 1454 1449 1473 1475 1479 1480 1490
1487 1482 1456 1449 1444 1445 1446 1442 1440 1440 1429 1411 1392 1394 1391 1376 1363 1360 1354 1352 1348 1346 1349 1352 1357 1363 1369 1378 1387 1393 1400 1407 1418 1427 1434 1440 1446 1449 1445 1463 1470 1469 1479 1486
1486 1486 1463 1456 1449 1451 1448 1445 1439 1435 1431 1418 1406 1391 1389 1384 1373 1364 1357 1352 1350 1344 1347 1349 1356 1362 1364 1373 1384 1391 1399 1407 1419 1427 1433 1435 1438 1442 1448 1456 1460 1468 1478 1483
1483 1482 1472 1458 1445 1445 1447 1443 1439 1431 1423 1426 1416 1400 1388 1384 1375 1367 1358 1352 1346 1341 1346 1349 1355 1359 1363 1371 1381 1389 1399 1409 1417 1422 1423 1426 1432 1439 1445 1450 1459 1466 1475 1481
1481 1486 1474 1458 1452 1448 1452 1445 1439 1431 1421 1425 1419 1408 1388 1382 1377 1369 1359 1349 1341 1340 1345 1349 1355 1360 1365 1373 1381 1392 1398 1406 1414 1419 1423 1427 1426 1430 1442 1450 1456 1465 1474 1479
1479 1481 1476 1479 1467 1456 1456 1446 1437 1430 1429 1419 1422 1407 1391 1386 1380 1373 1365 1354 1346 1343 1344 1351 1358 1362 1370 1379 1384 1389 1395 1401 1410 1416 1425 1432 1433 1423 1432 1448 1457 1463 1468 1479
1478 1477 1470 1465 1459 1451 1446 1441 1441 1433 1435 1428 1416 1408 1402 1395 1390 1383 1375 1365 1359 1357 1353 1353 1356 1362 1369 1376 1380 1389 1396 1402 1406 1415 1421 1426 1432 1431 1427 1443 1456 1462 1470 1478
1475 1475 1464 1459 1450 1443 1445 1445 1442 1435 1435 1428 1419 1413 1408 1400 1393 1386 1382 1376 1371 1366 1361 1362 1357 1363 1371 1376 1381 1388 1394 1402 1408 1414 1420 1426 1429 1436 1429 1439 1455 1463 1472 1476
1475 1471 1466 1465 1452 1445 1447 1448 1443 1437 1437 1434 1426 1420 1410 1402 1393 1396 1389 1383 1379 1375 1371 1368 1368 1367 1371 1377 1380 1385 1393 1401 1410 1415 1420 1423 1432 1443 1441 1446 1458 1469 1467 1475
1474 1473 1469 1467 1457 1448 1449 1443 1441 1438 1435 1435 1428 1420 1412 1406 1399 1396 1393 1390 1385 1381 1379 1379 1379 1378 1378 1380 1386 1392 1399 1404 1414 1417 1424 1431 1439 1440 1449 1459 1469 1472 1474 1480
1472 1474 1469 1472 1465 1455 1449 1444 1443 1439 1434 1432 1429 1421 1415 1406 1400 1400 1397 1395 1392 1388 1385 1384 1386 1387 1388 1391 1393 1395 1399 1405 1414 1421 1430 1432 1439 1443 1450 1460 1472 1474 1477 1481
1470 1472 1471 1467 1466 1473 1455 1443 1439 1438 1436 1430 1429 1424 1419 1413 1407 1411 1405 1400 1397 1394 1391 1388 1389 1392 1392 1393 1395 1398 1406 1409 1416 1421 1432 1437 1445 1450 1455 1461 1471 1473 1479 1487
1475 1470 1472 1467 1464 1457 1450 1444 1439 1447 1448 1433 1430 1427 1424 1422 1422 1419 1412 1407 1404 1401 1398 1397 1397 1398 1399 1401 1403 1406 1410 1413 1419 1425 1431 1437 1445 1452 1461 1467 1477 1482 1488 1493
1474 1471 1467 1472 1472 1465 1449 1446 1447 1447 1440 1437 1431 1429 1426 1425 1422 1419 1416 1412 1409 1407 1405 1403 1402 1402 1403 1404 1406 1401 1418 1420 1426 1425 1434 1444 1451 1459 1467 1476 1481 1487 1492 1497
1474 1468 1468 1464 1460 1447 1446 1446 1445 1444 1441 1436 1433 1429 1427 1425 1423 1421 1419 1416 1414 1410 1410 1410 1409 1409 1408 1406 1407 1409 1420 1425 1432 1434 1440 1450 1459 1467 1475 1481 1484 1488 1492 1495
1463 1461 1463 1459 1446 1444 1444 1443 1443 1441 1439 1436 1434 1431 1428 1426 1424 1422 1421 1418 1419 1417 1414 1411 1412 1411 1410 1410 1414 1416 1425 1432 1435 1441 1450 1458 1463 1472 1480 1485 1488 1491 1495 1498
1465 1460 1457 1454 1444 1442 1439 1438 1439 1439 1438 1435 1433 1431 1431 1427 1425 1423 1424 1422 1420 1420 1420 1417 1418 1418 1417 1419 1421 1426 1433 1437 1444 1449 1456 1462 1468 1475 1482 1488 1493 1496 1497 1502
1451 1449 1454 1449 1439 1439 1437 1436 1436 1436 1435 1433 1431 1431 1431 1429 1426 1425 1425 1425 1423 1423 1424 1423 1424 1424 1425 1427 1429 1432 1439 1442 1449 1454 1460 1467 1473 1479 1483 1487 1491 1498 1500 1507